Weather History for Beckley, WV

Change the Weather History Date:

Friday, November 22, 2013

  Actual Average Record
Temperature  
Mean Temperature 51 °F 42 °F  
Max Temperature 57 °F 50 °F 76 °F (1913)
Min Temperature 44 °F 33 °F 5 °F (1964)
Degree Days  
Heating Degree Days 14 23  
Month to date heating degree days 458 432  
Since 1 July heating degree days 891 938  
Cooling Degree Days 0 0  
Month to date cooling degree days 0 0  
Year to date cooling degree days 615 556  
Moisture  
Dew Point 50 °F    
Average Humidity 85    
Maximum Humidity 93    
Minimum Humidity 77    
Precipitation  
Precipitation 0.21 in 0.10 in 1.31 in (1962)
Month to date precipitation 1.58 2.15  
Year to date precipitation 34.78 37.39  
Snow  
Snow 0.00 in - - ()
Month to date snowfall 1.7  
Since 1 September snowfall 1.7  
Snow Depth 0.00 in    
Sea Level Pressure  
Sea Level Pressure 30.20 in    
Wind  
Wind Speed 7 mph (WSW)    
Max Wind Speed 17 mph    
Max Gust Speed 22 mph    
Visibility 7 miles    
Events Fog , Rain    
T = Trace of Precipitation, MM = Missing Value Source: NWS Daily Summary

Daily Weather History Graph

Daily Weather History Graph

Search for Another Location

Airport:

Trip Planner

Search our weather history database for the weather conditions in past years. The results will help you decide how hot, cold, wet, or windy it might be!

Date:

Astronomy

Nov. 22, 2013 Rise Set
Actual Time 7:12 AM EST 5:08 PM EST
Civil Twilight 6:43 AM EST 5:37 PM EST
Nautical Twilight 6:11 AM EST 6:09 PM EST
Astronomical Twilight 5:40 AM EST 6:40 PM EST
Moon 9:38 PM EST (11/22) 10:56 AM EST (11/22)
Length of Visible Light 10h 53m
Length of Day
9h 56m
Waning Gibbous, 78% of the Moon is Illuminated
Nov 22
Waning Gibbous
Nov 25
Last Quarter
Dec 2
New
Dec 9
First Quarter
Dec 17
Full

Hourly Weather History & Observations

Time (EST) Temp. Windchill Dew Point Humidity Pressure Visibility Wind Dir Wind Speed Gust Speed Precip Events Conditions
12:51 AM 52.0 °F - 44.1 °F 74% 30.29 in 10.0 mi SSE 9.2 mph - N/A   Mostly Cloudy
1:51 AM 53.1 °F - 46.0 °F 77% 30.25 in 10.0 mi SSE 8.1 mph - 0.00 in   Overcast
2:51 AM 53.1 °F - 46.0 °F 77% 30.26 in 10.0 mi ESE 4.6 mph - N/A   Overcast
3:51 AM 53.1 °F - 46.0 °F 77% 30.25 in 10.0 mi SSE 5.8 mph - N/A   Overcast
4:51 AM 53.1 °F - 46.0 °F 77% 30.26 in 10.0 mi SSE 4.6 mph - N/A   Overcast
5:51 AM 53.1 °F - 46.0 °F 77% 30.25 in 10.0 mi SE 3.5 mph - N/A   Overcast
6:43 AM 53.6 °F - 46.4 °F 77% 30.26 in 10.0 mi Calm Calm - N/A   Overcast
6:51 AM 51.1 °F - 46.0 °F 83% 30.26 in 8.0 mi NW 4.6 mph - 0.00 in Rain Light Rain
7:24 AM 50.0 °F - 46.4 °F 87% 30.26 in 10.0 mi Calm Calm - 0.00 in Rain Light Rain
7:42 AM 51.8 °F - 48.2 °F 88% 30.26 in 10.0 mi SSE 3.5 mph - 0.00 in Rain Light Rain
7:51 AM 52.0 °F - 48.0 °F 86% 30.25 in 10.0 mi South 3.5 mph - 0.00 in   Overcast
8:51 AM 53.1 °F - 50.0 °F 89% 30.25 in 6.0 mi Calm Calm - 0.00 in   Overcast
9:25 AM 55.4 °F - 51.8 °F 88% 30.25 in 10.0 mi SSW 5.8 mph - 0.00 in   Overcast
9:32 AM 55.4 °F - 51.8 °F 88% 30.24 in 10.0 mi SSW 4.6 mph - 0.00 in   Overcast
9:51 AM 55.0 °F - 50.0 °F 83% 30.23 in 10.0 mi Calm Calm - 0.00 in   Overcast
10:51 AM 57.0 °F - 51.1 °F 81% 30.22 in 10.0 mi SW 9.2 mph - N/A   Overcast
11:08 AM 55.4 °F - 51.8 °F 88% 30.24 in 2.5 mi WSW 8.1 mph - 0.00 in Rain Light Rain
11:15 AM 55.4 °F - 51.8 °F 88% 30.23 in 4.0 mi WSW 6.9 mph - 0.01 in Rain Light Rain
11:41 AM 55.4 °F - 53.6 °F 94% 30.22 in 6.0 mi WSW 5.8 mph - 0.01 in   Overcast
11:51 AM 55.9 °F - 53.1 °F 90% 30.20 in 8.0 mi WSW 4.6 mph - 0.01 in   Overcast
12:05 PM 55.4 °F - 53.6 °F 94% 30.21 in 5.0 mi WSW 3.5 mph - N/A   Overcast
12:17 PM 55.4 °F - 53.6 °F 94% 30.20 in 10.0 mi WSW 3.5 mph - N/A   Overcast
12:22 PM 55.4 °F - 53.6 °F 94% 30.20 in 10.0 mi West 3.5 mph - N/A   Overcast
12:35 PM 55.4 °F - 53.6 °F 94% 30.20 in 2.5 mi WSW 3.5 mph - 0.00 in Rain Light Rain
12:43 PM 55.4 °F - 53.6 °F 94% 30.20 in 5.0 mi WSW 4.6 mph - 0.00 in   Overcast
12:51 PM 55.9 °F - 53.1 °F 90% 30.17 in 6.0 mi WSW 4.6 mph - 0.00 in   Overcast
1:05 PM 55.4 °F - 53.6 °F 94% 30.19 in 1.8 mi SW 6.9 mph - 0.00 in Rain Light Rain
1:17 PM 55.4 °F - 53.6 °F 94% 30.18 in 2.5 mi WSW 5.8 mph - 0.01 in Rain Light Rain
1:34 PM 55.4 °F - 53.6 °F 94% 30.18 in 3.0 mi SW 6.9 mph - 0.01 in   Overcast
1:41 PM 55.4 °F - 53.6 °F 94% 30.17 in 2.5 mi WSW 4.6 mph - 0.01 in   Overcast
1:51 PM 55.9 °F - 54.0 °F 93% 30.15 in 2.5 mi SW 3.5 mph - 0.01 in   Overcast
2:09 PM 55.4 °F - 53.6 °F 94% 30.17 in 2.5 mi WSW 9.2 mph - N/A   Overcast
2:28 PM 55.4 °F - 53.6 °F 94% 30.16 in 3.0 mi WSW 5.8 mph - 0.01 in   Overcast
2:51 PM 55.9 °F - 53.1 °F 90% 30.13 in 3.0 mi WSW 6.9 mph - 0.02 in   Overcast
3:51 PM 55.9 °F - 53.1 °F 90% 30.13 in 6.0 mi WSW 9.2 mph - 0.00 in Rain Light Rain
4:51 PM 55.0 °F - 53.1 °F 93% 30.12 in 4.0 mi West 8.1 mph - 0.03 in Rain Light Rain
5:08 PM 55.4 °F - 53.6 °F 94% 30.14 in 5.0 mi West 9.2 mph - 0.01 in Rain Light Rain
5:51 PM 55.0 °F - 53.1 °F 93% 30.12 in 3.0 mi West 6.9 mph - 0.02 in Rain Light Rain
6:51 PM 54.0 °F - 52.0 °F 93% 30.14 in 5.0 mi NW 10.4 mph - 0.06 in Rain Light Rain
7:01 PM 53.6 °F - 51.8 °F 94% 30.15 in 5.0 mi NW 9.2 mph - 0.00 in Rain Light Rain
7:51 PM 53.1 °F - 51.1 °F 93% 30.15 in 9.0 mi NNW 8.1 mph - 0.02 in Rain Light Rain
8:51 PM 50.0 °F - 46.9 °F 89% 30.17 in 10.0 mi NNW 12.7 mph - 0.04 in Rain Light Rain
9:18 PM 48.2 °F - 46.4 °F 93% 30.18 in 10.0 mi NNW 10.4 mph - 0.00 in   Overcast
9:51 PM 46.9 °F - 45.0 °F 93% 30.18 in 7.0 mi NNW 11.5 mph 17.3 mph 0.00 in   Overcast
10:35 PM 46.4 °F 42.9 °F 44.6 °F 93% 30.17 in 10.0 mi NW 6.9 mph - 0.00 in   Overcast
10:51 PM 46.0 °F 42.5 °F 44.1 °F 93% 30.16 in 10.0 mi NW 6.9 mph - 0.00 in   Overcast
11:32 PM 44.6 °F 38.4 °F 42.8 °F 93% 30.18 in 3.0 mi NNW 12.7 mph 17.3 mph 0.00 in Rain Light Rain
11:45 PM 44.6 °F 39.2 °F 42.8 °F 93% 30.18 in 1.8 mi NNW 10.4 mph - 0.00 in   Overcast
11:51 PM 45.0 °F 38.9 °F 43.0 °F 93% 30.18 in 0.5 mi NW 12.7 mph 20.7 mph 0.00 in Fog Fog